www.pogodaiklimat.ru

Погода и климат >> Архив погоды >> Сирия >> Lattakia


ПОГОДА в Lattakia

  • Прогноз погоды в Lattakia
  • Монитор погоды в Lattakia
  • Климат города

АРХИВ ПОГОДЫ в Lattakia

Время (UTC), дата Ветер
(напр.,м/с)
 
Видим.   Явления Облачность Т
(С)
Тd
(С)
f
(%)
Тe
(С)
Тes
(С)
Комфортность P
(гПа)
Po
(гПа)
Тmin
(С)
Tmax
(С)
R
(мм)
R24
(мм)
S
(см)
00 11.11 С 1 15 км 8/0
[Ac und]
+18.6 0.0 29 +20 +20 1015.1 1015.0
03 11.11 С 1 15 км слабый дождь 9/4 900 м
[Sc diur, vesp Ac As]
+17.8 +13.2 74 +19 +19 1014.9 1015.0
06 11.11 штиль 0 15 км {гроза} 9/9 600 м
[Cb cap]
+17.6 1017.4 1017.0 5
09 11.11 С 1 15 км гроза, ливневой дождь 9/9 900 м
[Cb cap]
+17.2 +15.2 88 +18 +19 1017.3 1017.0
12 11.11 штиль 0 15 км слабый дождь {гроза} 9/9 600 м
[Cu Sc]
+19.0 1016.9 1017.0 2
15 11.11 З 1 15 км гроза без осадков 9/9 900 м
[Cb cap]
+17.8 +14.4 80 +19 +19 1017.3 1017.0
18 11.11 штиль 0 15 км гроза, ливневой дождь 9/9 900 м
[Cb cap]
+15.6 +14.0 90 +15 +15 1017.7 1018.0 +19.0 7
21 11.11 штиль 0 15 км 6/0
[]
+14.5 +13.3 93 +14 +14 1018.0 1018.0
00 12.11 штиль 0 15 км ясно +14.1 0.0 38 +14 +14 1017.6 1018.0
03 12.11 штиль 0 15 км ясно +13.6 -4.6 28 +13 +13 1017.5 1018.0
06 12.11 штиль 0 15 км 3/3 900 м
[]
+15.7 0.0 34 1019.0 1018.5 +13.0
09 12.11 штиль 0 15 км 3/3 900 м
[Cu med, cong]
+22.4 +14.1 59 +26 +32 жарко 1019.3 1019.0
12 12.11 штиль 0 15 км 4/3 900 м
[Cu med, cong Ac trans]
+22.0 +14.0 60 +25 +29 комфорт 1018.6 1019.0
18 12.11 штиль 0 15 км ясно +16.6 +14.4 87 +16 +16 1019.2 1019.0 +24.5
06 13.11 штиль 0 15 км 1/1 900 м
[Cu hum]
+16.6 0.0 32 +17 +18 1017.3 1017.0 +12.0
09 13.11 штиль 0 15 км 4/0
[Ci fib]
+24.0 +12.2 48 +26 +35 жарко 1016.5 1017.0
12 13.11 штиль 0 15 км 5/3 900 м
[Cu med, cong Ci sp]
+22.6 0.0 22 +22 +25 комфорт 1015.1 1015.0
15 13.11 штиль 0 15 км 5/0
[Ci sp]
+20.2 -4.0 19 +22 +22 комфорт 1014.3 1014.0
18 13.11 штиль 0 15 км 4/0
[Ci fib]
+17.6 0.0 30 +18 +18 1014.1 1014.0 +27.0
21 13.11 штиль 0 15 км ясно +15.6 +12.0 79 +15 +15 1013.1 1013.0
00 14.11 штиль 0 15 км 4/4 900 м
[Cu med, cong]
+15.4 0.0 35 +15 +15 1011.3 1011.0
03 14.11 штиль 0 15 км ясно +15.4 +11.7 79 +15 +15 1010.3 1010.0
06 14.11 штиль 0 15 км 5/0
[Ci sp]
+17.4 0.0 31 +17 +19 1010.5 1011.0 +15.0
09 14.11 штиль 0 15 км 5/3 900 м
[Cu med, cong Ci sp]
+22.6 +12.9 54 +25 +32 комфорт 1009.8 1010.0
12 14.11 штиль 0 15 км 3/0
[Ci sp]
+22.4 +17.3 73 +22 +27 комфорт 1008.2 1008.0
15 14.11 штиль 0 15 км 3/3 900 м
[Cu med, cong]
+19.6 +13.1 66 +21 +21 комфорт 1008.4 1008.0
18 14.11 СВ 1 15 км ясно +16.8 0.0 32 +18 +18 1009.1 1009.0 +22.8
21 14.11 штиль 0 15 км 4/4 900 м
[Cu med, cong]
+16.0 -3.7 26 +16 +16 1010.1 1010.0
00 15.11 штиль 0 15 км 5/5 900 м
[Cu med, cong]
+15.2 0.0 35 +15 +15 1010.4 1010.0
03 15.11 С 2 15 км 3/3 900 м
[Cu med, cong]
+13.7 +8.9 73 +13 +13 1010.4 1010.0
06 15.11 С 1 15 км 5/5 900 м
[Cu med, cong]
+14.0 +9.8 76 +15 +15 1011.6 1012.0 +12.8
09 15.11 С 2 15 км 9/9 900 м
[Cu Sc]
+15.4 +5.8 53 +15 +16 1011.8 1012.0
12 15.11 С 1 15 км 3/3 900 м
[Sc diur, vesp]
+18.0 0.0 30 +19 +22 1011.4 1011.0
15 15.11 С 1 15 км 4/4 900 м
[Sc diur, vesp]
+16.0 +6.6 54 +17 +17 1011.6 1012.0
18 15.11 штиль 0 15 км 3/0 900 м
[Ac trans]
+13.6 0.0 39 +14 +14 1012.2 1012.0 +18.8
21 15.11 СВ 1 15 км 4/0
[Ac trans]
+14.6 -2.6 30 +15 +15 1012.3 1012.0
00 16.11 СВ 2 15 км 5/0
[Ac trans]
+14.2 0.0 38 +14 +14 1012.3 1012.0
03 16.11 СВ 1 15 км {дождь} 9/4 900 м
[Sc diur, vesp Ac und]
+13.8 +9.1 73 +14 +14 1012.7 1013.0
06 16.11 В 8 15 км {дождь} 6/3 600 м
[Sc diur, vesp Ac und]
+16.4 +14.3 87 1012.7 1013.0 0.3
09 16.11 С 3 15 км 6/3 900 м
[Cu med, cong Ci sp]
+17.4 +12.4 72 +17 +21 1014.1 1014.0
12 16.11 З 4 15 км 4/4 900 м
[Cu med, cong]
+11.4 0.0 45 +10 +11 1015.6 1016.0
18 16.11 штиль 0 15 км ясно +13.2 0.0 40 +13 +13 1020.1 1020.0 +20.0
21 16.11 штиль 0 15 км ясно +11.6 +9.0 84 +11 +11 1021.2 1021.0
00 17.11 штиль 0 15 км ясно +10.6 0.0 48 +10 +10 1022.1 1022.0
03 17.11 штиль 0 15 км ясно +11.2 +8.4 83 +11 +11 1022.5 1023.0
06 17.11 С 1 15 км 4/0
[Ci ing]
+11.7 0.0 44 +12 +13 1023.6 1024.0 +9.8
09 17.11 С 2 15 км 6/0
[Ac trans Ci sp]
+19.0 +8.5 51 +20 +25 1023.0 1023.0
12 17.11 15 км ясно +22.2 +5.2 33 997.0
18 17.11 С 2 15 км 3/0
[Ci fib]
+14.7 +7.1 60 +15 +15 1022.7 1023.0 +23.2

 

Местоположение метеостанции Lattakia (Сирия): широта 35.53 долгота 35.77 высота над уровнем моря 7 м.

В архиве по умолчанию представлена погода в Lattakia за последнюю неделю. Архивные данные за месяц целиком и за предыдущие месяцы, начиная с января 2011 года, Вы можете получить, выбрав интересующий диапазон дат из раскрывающегося списка и нажав кнопку "Ввод!".


*Определитесь, кто Вы:
робот инопланетянин человек

Внимание! Время в таблицах - всемирное. Для получения местного времени необходимо прибавить поправку, которая в Lattakia равна 2 ч.

Смотрите также архив погоды в соседних городах и на ближайших метеорологических станциях:

Погода в Basel Assad Int Airport (Сирия) (20 км)
Погода в Safita (Сирия) (85 км)
Погода в Hama (Сирия) (100 км)
Погода в Tripoli (Ливан) (121 км)
Погода в Iskenderun (Турция) (122 км)
Погода в Rizocarpaso (Кипр) (126 км)
Погода в Aleppo Int Airport (Сирия) (148 км)
Погода в Gialousa (Кипр) (158 км)
Погода в Incirlik (Турция) (166 км)
Погода в Adana (Турция) (167 км)

Пояснения к столбцам:

Ветер - указаны скорость ветра в м/с - средняя за 10 мин, порывы в срок и между сроками (в фигурных скобках) и направление, откуда дует ветер: С - северный, СВ - северо-восточный, В - восточный, ЮВ - юго-восточный, Ю - южный, ЮЗ - юго-западный, З - западный, СЗ - северо-западный.
Видимость - горизонтальная дальность видимости в метрах или километрах. При видимости от 1 до 10 км при отсутствии осадков обычно наблюдается дымка, при ухудшении видимости до 1 км и менее - туман. В сухую погоду видимость может ухудшаться дымом, пылью или мглою.
Явления - указаны атмосферные явления, наблюдавшиеся в срок или в последний час перед сроком; фигурными скобками обозначены явления, наблюдавшиеся между сроками (за 1-3 часа до срока); квадратными скобками обозначены град или гололедные отложения с указанием их диаметра в мм.
Облачность - указаны через наклонную черту общая и нижняя облачность в баллах и высота нижней границы облаков в метрах; квадратными скобками обозначены формы облаков: Ci - перистые, Cs - перисто-слоистые, Cc - перисто-кучевые, Ac - высококучевые, As - высокослоистые, Sc - слоисто-кучевые, Ns - слоисто-дождевые, Cu - кучевые, Cb - кучево-дождевые. Подробнее классификацию облаков см. в Атласе облаков (PDF).
T - Температура воздуха - температура, измеренная на высоте 2 м над землей.
Td - Температура точки росы - температура, при понижении до которой содержащийся в воздухе водяной пар достигнет насыщения.
f - Относительная влажность воздуха - влажноcть воздуха, измеренная на высоте 2 м над землей.
Te - Эффективная температура - температура, которую ощущает одетый по сезону человек в тени. Характеристика душности погоды. При расчете учитывается влияние влажности воздуха и скорости ветра на теплоощущения человека.
Tes - Эффективная температура на солнце - температура, которую ощущает человек, с поправкой на солнечный нагрев. Характеристика знойности погоды. Зависит от высоты солнца над горизонтом, облачности и скорости ветра. Ночью, в пасмурную погоду, а также при ветре 12 м/с и более поправка равна нулю.
P - Атмосферное давление - приведенное к уровню моря атмосферное давление.
Po - Атмосферное давление - измеренное на уровне метеостанции атмосферное давление.
Tmin - Минимальная температура - минимум температуры воздуха на высоте 2 м над землей.
Tmax - Максимальная температура - максимум температуры воздуха на высоте 2 м над землей.
R - Количество осадков - Количество выпавших осадков за период времени, мм. При наведении курсора мыши на число - период времени, за который выпало указанное количество осадков.
R24 - Количество осадков - Количество выпавших осадков за 24 часа, мм.
S - Снежный покров - Высота снежного покрова, см. При наведении курсора мыши на число - состояние снежного покрова и степень покрытия местности в баллах.